Regional Weather Roundup
Issued by NWS

Home | Current Version | Previous Version | Text Only | Print | Product List | Glossary Off
Versions: 1 2 3 4 5 6 7 8 9 10 11 12 13 14 15 16 17 18 19 20 21 22 23 24 25 26 27 28 29 30 31 32 33 34 35 36 37 38 39 40 41 42 43 44 45 46 47 48 49 50

000
ASUS43 KMKX 102311
RWRWI

WISCONSIN REGIONAL WEATHER ROUNDUP
NATIONAL WEATHER SERVICE MILWAUKEE/SULLIVAN WI
600 PM CDT THU JUL 10 2014

NOTE: "FAIR" INDICATES FEW OR NO CLOUDS BELOW 12,000 FEET WITH NO
SIGNIFICANT WEATHER AND/OR OBSTRUCTIONS TO VISIBILITY.

WIZ001-002-006>008-014>016-023>028-110000-
NORTHWEST WISCONSIN

CITY           SKY/WX    TMP DP  RH WIND       PRES   REMARKS
SUPERIOR ARPT  SUNNY     62  54  75 NE6       30.00S
ASHLAND        MOSUNNY   79  56  45 S10       30.01S HX  80
HAYWARD        SUNNY     79  59  50 S7        30.02F HX  80
SIREN          MOSUNNY   81  59  47 S9        30.00S HX  81
RICE LAKE      PTSUNNY   79  60  52 S8        30.03S HX  80
LADYSMITH      SUNNY     79  59  50 S8        30.05S HX  80
EAU CLAIRE     MOSUNNY   80  64  58 S13       30.02S HX  82
MENOMONIE      PTCLDY    80  64  58 SE9       30.02S HX  82
NEW RICHMOND   PTSUNNY   79  62  56 S12       30.01S HX  81
OSCEOLA        PTSUNNY   81  64  55 S8        30.02S HX  82
$$

WIZ003>005-009-010-017-018-110000-
NORTH CENTRAL WISCONSIN

CITY           SKY/WX    TMP DP  RH WIND       PRES   REMARKS
WOODRUFF       MOSUNNY   77  55  46 SW7       30.07S
RHINELANDER    SUNNY     75  55  49 S8        30.09F
EAGLE RIVER    SUNNY     75  48  38 SW6       30.07F
LAND O LAKES   MOSUNNY   76  51  40 SW8       30.08F
PHILLIPS       MOSUNNY   76  58  53 S8        30.05S
TOMAHAWK       SUNNY     75  58  55 CALM      30.08S
MEDFORD        PTSUNNY   75  61  62 S8        30.07S
MERRILL        SUNNY     77  59  53 S8        30.07F
$$

WIZ029-030-035-036-043>047-110000-
CENTRAL WISCONSIN

CITY           SKY/WX    TMP DP  RH WIND       PRES   REMARKS
WAUSAU         MOSUNNY   78  57  48 S9        30.06F
MOSINEE        MOSUNNY   75  61  60 S8        30.09F
MARSHFIELD     SUNNY     77  63  61 S13       30.06F
STEVENS POINT  MOSUNNY   76  57  52 S12       30.08F
WAUPACA        SUNNY     80  57  44 SE9       30.09F HX  80
WAUTOMA        SUNNY     78  60  53 S8        30.09F
WISC RAPIDS    PTSUNNY   80  61  52 S10       30.08F HX  81
CAMP DOUGLAS   SUNNY     79  63  58 SW9       30.07F HX  81
$$

WIZ011>013-019>022-031-037>040-048>050-110000-
NORTHEAST WISCONSIN

CITY           SKY/WX    TMP DP  RH WIND       PRES   REMARKS
ANTIGO         SUNNY     73  59  62 S7        30.10S
STURGEON BAY   SUNNY     66  52  59 S12       30.14F
GREEN BAY      SUNNY     74  56  53 SE15      30.11F
MANITOWOC      SUNNY     67  53  61 S10       30.15F
APPLETON       MOSUNNY   75  54  46 SE9       30.11F
CLINTONVILLE   SUNNY     77  54  44 SE9       30.09F
OSHKOSH        SUNNY     77  58  51 S8        30.09F
$$

WIZ032>034-041-042-053>061-110000-
SOUTHWEST WISCONSIN

CITY           SKY/WX    TMP DP  RH WIND       PRES   REMARKS
LA CROSSE      SUNNY     82  62  50 S13       30.04S HAZE    HX  83
SPARTA         SUNNY     79  60  53 S8        30.07S HX  80
VIROQUA        MOCLDY    78  61  54 S9        30.09S HX  80
BOSCOBEL       SUNNY     82  60  47 VRB6      30.07F HX  82
PRAIRIE DU CHI MOSUNNY   80  58  46 SE5       30.06S HX  81
PLATTEVILLE    FAIR      79  60  51 S10       30.11S HX  80
$$

WIZ056-057-062-063-064-067-068-110000-
SOUTH CENTRAL WISCONSIN

CITY           SKY/WX    TMP DP  RH WIND       PRES   REMARKS
BARABOO/DELLS  MOSUNNY   79  60  52 S9        30.09S HX  80
LONE ROCK      SUNNY     82  63  52 S6        30.08F HX  83
WATERTOWN      MOSUNNY   76  57  51 S7        30.10F
MADISON        MOSUNNY   80  58  46 S9        30.10F HX  80
MIDDLETON      FAIR      79  57  47 S9        30.10S HX  80
MONROE         PTSUNNY   77  59  53 S8        30.11S
JANESVILLE     MOSUNNY   81  55  41 SE8       30.11F HX  80
$$

WIZ051-052-058>065-066-070>072-110000-
SOUTHEAST WISCONSIN

CITY           SKY/WX    TMP DP  RH WIND       PRES   REMARKS
MILWAUKEE      MOSUNNY   68  53  58 SE12      30.15F
WAUKESHA       SUNNY     73  57  56 SE10      30.16S
MILWAUKEE/TIMM SUNNY     72  46  40 SE10      30.14F
RACINE         SUNNY     69  54  58 SE10      30.16F
BURLINGTON     SUNNY     73  58  59 SE12      30.13F
KENOSHA        SUNNY     71  54  54 SE10      30.15F
FOND DU LAC    MOSUNNY   76  60  57 SE15      30.11F
SHEBOYGAN      SUNNY     68  52  56 S8        30.14F
WEST BEND      SUNNY     70  50  49 E9G16     30.14S
JUNEAU         SUNNY     77  38  24 SE8       30.12S
$$

LSZ147-162-110000-
LAKE SUPERIOR

STATION/POSITION TIME  TEMP    WIND        PRES    WAVE
                       AIR SEA DIR/SP/G            HT/PER
                 (UTC) (F)     (DEG/KT/KT) (MB)    (FT/S)
W MID LAKE BUOY  2250   49 39  120/  8/ 10 1016.8S   0
PORT WING        2240   58      30/  6/  8 1015.9S
SAXON HARBOR     2200          200/  4/ 12 1015.9F
$$

LMZ867-665-643>646-110000-
LAKE MICHIGAN

STATION/POSITION TIME  TEMP    WIND        PRES    WAVE
                       AIR SEA DIR/SP/G            HT/PER
                 (UTC) (F)     (DEG/KT/KT) (MB)    (FT/S)
N MID LAKE BUOY  2250   59 56  170/  6/  6 1020.5F   0
NORTHPORT PIER   2200   64     150/ 10/ 14 1020.7F
KEWAUNEE LAKESHO 2200   56     170/  6/  7 1021.8F
SHEBOYGAN LAKESH 2300   62     170/ 10/ 10 1021.0F
PORT WASHINGTON  2200   67     160/  4/  6 1021.7
MILWAUKEE LAKESH 2200   61     150/  5/  6   N/A
S MID LAKE BUOY  2250   64 63  130/  2/  2 1021.5F   0
KENOSHA   LAKESH 2200   65     160/  7/  8   N/A
$$

TC  - TEMPERATURE IN CELSIUS
VSB - VISIBILITY IN STATUTE MILES
WCI - WIND CHILL INDEX
HX  - HEAT INDEX




USA.gov is the U.S. government's official web portal to all federal, state and local government web resources and services.